Wind_Speed
24 25 26 27 28 28 28 28 27 26 25 25 25 25 24 23 23 23 22 21 21 20 20 20 20 20 19 19 18 17 16 15 14 13 12 12 12 12 11 11 11 11 11 11 10 10 10 11 10
24 25 26 27 29 29 28 28 28 27 26 27 27 26 26 25 25 24 23 23 23 22 22 22 22 21 20 21 21 19 18 17 16 16 15 14 13 13 13 13 12 12 13 12 12 12 12 12 12
24 25 26 27 28 28 28 28 28 28 27 27 27 27 27 26 26 26 25 25 25 24 24 23 23 23 22 22 22 21 20 19 18 17 16 15 15 14 14 14 14 13 13 13 13 13 13 13 13
23 24 26 26 26 26 27 28 28 29 28 28 28 28 27 27 27 26 26 26 26 27 26 25 25 25 24 24 23 23 22 21 20 19 18 17 16 15 15 14 14 14 14 14 14 15 14 14 14
22 23 25 25 25 25 26 27 28 30 29 28 29 29 28 28 28 27 27 27 27 28 27 27 27 27 26 25 25 24 24 23 22 21 19 18 17 16 16 16 15 15 16 16 16 16 16 16 16
23 23 24 24 25 25 25 26 27 30 29 28 29 29 28 28 28 28 28 28 29 29 30 29 29 28 28 27 26 26 25 25 24 22 21 20 19 18 18 17 17 16 17 17 17 17 17 17 17
23 23 24 24 24 24 24 26 26 28 29 29 29 29 29 29 29 29 29 29 29 30 31 31 31 30 30 29 28 27 26 26 25 24 23 22 21 20 19 19 18 18 18 18 18 18 18 18 18
22 23 23 23 23 23 25 26 27 28 28 29 30 29 29 29 29 30 30 30 30 30 31 32 32 32 32 31 29 28 27 27 26 26 25 24 23 22 21 20 20 20 20 20 19 19 19 19 19
21 21 21 22 21 22 24 26 27 27 28 29 30 29 29 30 30 31 31 31 31 31 31 32 33 34 33 32 30 29 29 28 28 27 27 26 25 24 23 22 22 21 21 21 21 21 21 21 21
20 20 21 20 21 22 24 25 26 27 28 28 29 30 30 30 31 31 31 31 31 31 31 32 34 35 34 33 32 31 31 29 29 29 29 28 26 26 25 25 24 24 23 23 23 23 23 23 24
20 19 19 20 20 22 24 25 25 26 26 28 28 29 30 30 30 31 31 31 31 32 32 33 34 35 34 34 34 33 32 30 30 30 29 29 28 27 27 27 27 26 25 25 25 26 26 26 26
19 19 19 20 20 22 23 23 23 24 25 26 28 28 29 30 30 31 32 32 32 32 33 34 34 35 35 35 35 34 33 32 30 30 30 31 30 30 29 29 29 28 28 27 27 28 28 28 28
18 18 19 19 20 21 21 22 23 25 25 25 27 28 28 30 30 30 30 31 30 31 34 36 36 35 35 36 36 35 36 35 33 32 32 32 32 31 31 30 30 30 30 30 30 30 30 31 31
19 19 20 20 21 21 21 22 24 25 25 26 27 28 29 29 29 30 30 29 29 31 33 36 37 37 37 36 36 37 37 36 35 34 33 33 33 32 33 32 32 32 32 33 33 33 33 33 32
19 19 20 21 21 21 22 22 23 24 25 26 27 28 29 29 30 30 30 31 30 32 33 35 36 36 37 37 36 36 36 35 34 33 32 33 33 33 34 34 34 33 34 34 35 35 34 33 33
19 19 19 20 21 22 23 21 21 22 24 26 26 27 27 29 29 29 29 30 30 32 34 34 34 36 37 37 36 37 36 37 35 35 34 34 34 34 35 35 35 35 35 35 35 36 36 35 35
18 18 19 20 21 22 23 22 20 21 23 24 25 25 26 28 29 29 29 30 30 30 32 33 33 35 35 36 35 36 37 36 35 34 34 35 35 35 35 35 36 36 36 36 37 37 37 37 37
18 18 19 20 21 21 21 21 20 20 22 23 25 25 25 26 27 27 27 28 28 30 31 31 32 33 35 36 36 36 35 35 35 35 34 34 35 36 36 36 36 38 38 38 38 38 38 39 39
18 19 19 20 21 21 21 21 21 21 21 21 23 24 24 24 25 26 26 26 26 28 30 30 30 32 34 34 35 34 36 36 36 35 35 35 36 37 37 37 37 38 39 39 39 39 39 39 40
19 19 20 21 22 22 21 20 21 21 20 21 22 22 23 23 24 25 25 24 24 26 27 29 29 31 32 35 35 34 36 36 36 35 34 35 36 37 38 38 39 39 39 39 40 40 40 40 39
20 20 21 21 22 22 22 21 22 21 21 20 20 21 22 22 23 24 24 26 26 26 27 29 30 30 32 35 36 35 36 36 35 35 35 35 35 37 39 40 40 40 40 40 40 40 40 39 39
21 21 21 22 23 23 23 23 22 22 21 20 20 20 21 22 23 24 24 25 26 26 27 29 29 30 32 34 35 36 36 36 36 35 35 35 36 37 39 40 40 40 40 39 39 39 40 39 38
21 21 22 22 23 23 23 24 22 21 21 21 21 20 21 22 22 23 23 24 25 26 27 28 29 29 31 33 34 36 37 36 35 36 36 36 37 37 38 40 41 41 40 40 40 40 41 40 39
22 22 22 23 23 24 22 24 23 22 21 20 21 21 21 21 22 23 22 23 25 25 27 28 29 30 31 33 35 36 36 36 36 36 37 37 37 37 38 40 40 40 40 41 41 41 41 42 42
23 23 24 25 25 25 24 24 23 22 21 21 21 21 21 22 23 24 24 24 25 26 27 27 27 29 30 32 34 36 36 36 36 35 36 37 37 38 38 39 39 40 41 41 41 41 42 43 43
24 25 25 26 27 26 25 24 23 23 23 22 22 22 22 22 22 24 24 25 26 27 27 28 28 29 30 31 32 35 35 36 37 36 36 37 37 38 37 38 39 39 40 41 41 41 42 43 43
25 26 26 27 28 28 27 25 24 24 24 24 24 24 23 23 23 23 24 25 25 26 27 28 28 29 30 32 33 34 35 37 37 37 37 36 36 36 37 37 38 40 40 41 41 42 42 43 44
27 27 28 28 29 30 28 26 25 25 25 25 25 24 24 24 24 24 25 26 26 26 26 27 28 29 31 32 34 35 35 35 36 37 36 35 35 37 38 38 39 40 41 42 43 43 44 44 45
29 29 29 30 30 31 31 28 27 26 26 26 26 27 26 26 26 26 26 27 27 27 27 28 28 29 31 32 32 34 34 35 35 36 36 36 37 38 39 40 40 41 43 44 44 45 45 45 45
31 30 30 31 31 32 32 30 28 28 28 28 28 28 28 28 28 28 28 28 29 28 29 30 30 30 31 32 32 33 33 34 35 36 37 38 39 40 41 41 42 43 44 45 45 46 46 47 47
Wind_Direction
265 262 260 259 258 255 255 254 252 250 251 250 250 250 251 252 253 253 252 250 249 247 245 242 241 241 237 235 234 236 236 237 239 241 243 246 249 252 256 261 264 265 267 269 273 276 278 279 280
265 263 261 260 257 254 253 253 251 251 252 251 251 252 252 252 253 253 252 250 248 247 245 243 241 239 238 239 239 239 239 240 241 243 244 247 250 253 256 259 262 265 266 267 270 275 277 278 279
267 265 264 262 258 255 252 250 249 249 252 252 252 252 253 253 253 253 252 250 249 247 245 242 240 237 239 240 241 242 241 241 242 243 245 247 249 252 255 258 261 264 265 266 268 272 275 277 279
270 267 264 263 261 257 253 251 249 249 251 251 252 253 254 254 254 254 253 251 249 247 245 241 239 238 238 240 241 242 242 242 243 245 246 247 250 252 254 256 258 261 263 265 267 270 272 276 278
271 268 265 263 262 259 255 252 251 249 250 251 252 254 255 255 255 255 253 252 250 248 244 241 241 239 239 239 240 240 242 242 244 245 246 247 249 252 254 255 258 260 263 266 269 270 271 273 276
274 270 266 264 262 259 255 253 252 250 251 253 253 254 254 255 256 256 255 253 250 249 246 243 241 240 239 238 239 240 241 242 243 244 246 248 249 251 253 256 258 260 263 266 268 269 270 271 273
274 271 268 264 262 257 254 253 254 254 254 254 254 255 254 254 255 256 256 255 252 250 247 244 241 239 238 237 238 239 240 242 242 243 245 247 249 251 252 254 257 260 263 265 267 267 269 270 272
276 273 268 265 261 257 256 255 256 258 257 255 254 255 254 256 257 257 258 256 253 250 246 243 238 236 235 235 236 237 238 240 241 242 244 247 249 251 252 254 256 259 263 266 267 267 268 270 272
277 273 269 265 260 259 257 258 257 259 258 256 255 255 255 257 259 258 257 255 252 249 244 241 237 234 233 233 235 236 237 238 240 242 244 246 248 251 252 254 256 259 262 265 267 269 270 270 272
277 274 270 266 262 262 260 260 259 261 260 258 256 257 257 258 259 258 255 253 250 246 243 239 236 234 233 234 235 236 237 238 239 242 244 246 248 250 252 254 256 258 260 263 266 268 270 271 272
279 278 271 267 264 263 263 262 261 262 261 260 258 259 259 260 259 257 253 252 250 244 241 238 236 234 233 234 234 235 237 238 239 240 243 246 248 250 252 254 256 257 260 263 266 268 269 270 272
281 279 274 270 268 267 266 263 264 264 264 263 260 260 260 259 258 254 252 252 251 244 239 236 235 234 232 231 232 233 235 237 239 241 244 246 248 251 253 255 255 257 259 262 265 267 269 270 273
283 278 275 273 272 270 266 267 268 265 265 266 263 262 261 259 257 254 253 250 248 243 237 235 234 233 233 232 233 234 236 239 241 242 244 247 249 251 253 255 256 257 259 262 264 267 267 270 272
283 280 277 276 276 274 270 270 270 268 267 266 266 265 261 257 255 254 251 252 250 243 239 236 234 234 234 234 233 234 237 239 241 244 246 248 249 251 253 255 257 259 260 261 262 265 266 268 270
283 284 281 279 279 275 275 273 271 270 270 269 268 266 262 256 255 255 253 252 252 246 242 237 234 233 234 234 235 236 237 239 243 245 246 248 250 252 255 256 258 260 261 261 262 263 265 266 268
283 284 284 284 282 280 278 279 277 276 273 273 269 265 261 257 255 254 254 252 252 248 241 237 235 233 234 236 237 238 239 242 246 247 247 249 251 253 255 257 259 261 261 262 262 263 264 265 268
283 284 286 287 285 285 281 281 283 279 276 276 272 267 263 258 257 257 255 252 251 245 238 238 237 235 235 237 239 240 241 244 246 249 248 250 251 254 256 259 261 261 262 263 263 263 263 265 267
286 284 285 288 287 286 285 285 286 282 280 279 276 271 267 265 262 261 259 254 250 244 239 239 238 238 239 239 243 244 244 246 247 249 250 251 253 255 257 259 260 261 263 263 264 264 264 265 267
286 286 284 286 287 285 285 287 287 287 284 284 282 276 271 268 263 260 259 255 252 246 242 240 240 240 241 242 244 245 244 245 247 250 252 252 254 256 258 258 259 262 263 262 263 264 266 267 267
285 285 285 285 286 286 285 286 285 286 285 285 285 280 273 270 265 262 262 257 255 250 246 243 244 244 243 244 246 245 245 246 251 252 254 254 256 257 258 259 260 262 263 264 264 265 266 268 268
285 285 286 285 286 285 285 284 283 284 285 286 288 283 274 271 268 265 263 258 257 255 251 248 247 248 247 246 246 246 245 248 252 252 254 256 257 258 259 260 262 263 264 264 265 266 266 267 267
287 288 287 286 286 286 286 285 282 284 286 286 287 284 276 272 270 266 264 261 256 256 253 250 250 252 249 246 247 248 248 250 254 256 257 259 260 260 260 261 261 264 266 266 266 266 268 268 267
284 287 287 287 286 286 286 284 284 283 282 284 284 282 279 274 270 267 265 263 260 257 255 254 255 255 251 249 249 249 250 251 256 259 260 261 261 262 261 261 262 264 266 267 268 268 269 269 269
283 284 286 287 288 287 288 288 287 286 286 286 284 282 279 277 274 271 268 265 262 260 258 257 256 255 254 252 250 250 252 253 256 259 263 262 263 263 264 264 264 264 265 267 268 269 269 270 270
282 284 287 288 289 291 291 288 289 289 288 289 287 283 281 280 277 273 270 266 264 263 260 257 257 256 256 255 252 252 254 255 257 262 264 262 264 264 266 266 266 266 267 268 268 269 269 270 271
282 285 287 290 290 291 291 289 288 289 289 289 288 284 282 283 278 275 271 268 266 263 259 256 260 259 257 257 255 254 255 256 259 263 265 265 265 264 265 265 266 267 268 268 269 270 271 271 272
281 283 286 287 289 289 289 289 287 289 290 288 287 284 283 282 279 277 275 273 269 266 262 260 261 259 258 258 257 258 257 259 261 264 265 266 265 264 265 266 268 268 269 270 270 271 271 272 273
279 282 284 284 286 287 286 287 289 288 287 286 284 282 283 280 277 277 276 275 273 270 265 264 264 261 261 260 260 260 260 260 262 265 264 264 266 267 267 268 269 270 271 271 271 272 272 273 274
278 280 281 281 282 284 286 288 288 287 287 285 283 280 282 280 277 276 277 276 274 272 269 269 267 265 262 262 262 262 262 263 264 265 264 266 268 268 269 269 270 272 272 271 272 273 273 274 275
275 278 280 280 280 282 284 287 288 287 286 284 281 280 280 279 278 276 276 276 275 272 270 269 268 266 264 264 264 265 265 267 268 268 267 268 270 270 271 271 272 274 274 273 273 274 275 275 275
Height
5802 5803 5804 5805 5806 5807 5808 5811 5813 5815 5817 5819 5821 5823 5824 5827 5829 5833 5833 5833 5835 5836 5837 5839 5840 5842 5844 5846 5847 5849 5850 5852 5853 5854 5855 5856 5858 5859 5860 5860 5861 5862 5863 5863 5864 5864 5865 5865 5865
5797 5797 5798 5798 5798 5800 5803 5805 5807 5809 5812 5814 5816 5818 5819 5821 5823 5825 5827 5828 5830 5832 5833 5835 5836 5838 5840 5842 5844 5846 5847 5848 5850 5851 5852 5854 5855 5856 5857 5858 5859 5859 5860 5861 5862 5862 5863 5863 5863
5791 5791 5792 5792 5792 5794 5797 5799 5801 5803 5805 5808 5810 5812 5814 5816 5818 5820 5822 5823 5825 5827 5828 5830 5832 5834 5836 5838 5840 5842 5843 5845 5846 5848 5849 5850 5851 5853 5854 5855 5856 5857 5858 5858 5859 5860 5860 5860 5861
5785 5786 5786 5786 5786 5789 5791 5793 5795 5797 5799 5801 5803 5806 5808 5811 5812 5814 5816 5818 5820 5821 5823 5825 5827 5829 5831 5834 5836 5837 5839 5841 5843 5844 5845 5847 5848 5849 5851 5852 5853 5854 5855 5855 5856 5857 5857 5858 5858
5780 5780 5780 5780 5781 5783 5785 5787 5788 5790 5792 5795 5797 5800 5802 5804 5806 5808 5810 5812 5814 5816 5817 5819 5822 5824 5826 5829 5831 5833 5835 5837 5838 5840 5842 5843 5844 5846 5847 5849 5850 5851 5852 5852 5853 5854 5854 5855 5855
5774 5774 5774 5774 5776 5777 5779 5781 5782 5783 5786 5788 5791 5793 5796 5797 5799 5801 5803 5805 5807 5809 5811 5813 5816 5818 5821 5823 5825 5828 5830 5832 5834 5836 5837 5839 5840 5842 5843 5845 5846 5847 5848 5849 5849 5850 5851 5851 5852
5769 5768 5768 5769 5770 5771 5773 5775 5776 5777 5780 5782 5784 5787 5789 5791 5792 5794 5796 5798 5800 5802 5804 5807 5809 5812 5815 5817 5820 5822 5824 5827 5829 5831 5833 5834 5836 5838 5839 5841 5842 5843 5844 5845 5846 5846 5847 5847 5848
5763 5764 5763 5763 5765 5766 5768 5769 5771 5772 5773 5775 5777 5780 5782 5784 5784 5786 5788 5790 5792 5794 5797 5799 5802 5805 5808 5811 5814 5816 5819 5821 5823 5826 5828 5830 5831 5833 5835 5836 5838 5839 5840 5841 5841 5842 5843 5843 5844
5759 5759 5758 5758 5759 5761 5762 5763 5765 5766 5767 5768 5770 5773 5775 5776 5777 5778 5780 5782 5784 5786 5789 5792 5794 5798 5801 5804 5807 5810 5812 5815 5817 5820 5822 5824 5826 5828 5830 5831 5833 5834 5835 5836 5837 5838 5838 5839 5839
5754 5754 5754 5754 5755 5755 5756 5757 5758 5759 5761 5762 5764 5766 5767 5768 5769 5770 5771 5773 5775 5777 5780 5783 5786 5790 5794 5797 5800 5803 5805 5808 5811 5814 5816 5819 5821 5823 5824 5826 5828 5829 5830 5831 5832 5833 5834 5834 5835
5750 5750 5750 5749 5750 5750 5751 5752 5752 5753 5755 5756 5757 5758 5759 5760 5760 5761 5763 5764 5766 5769 5772 5775 5778 5782 5786 5790 5793 5796 5798 5801 5804 5807 5810 5813 5815 5817 5818 5820 5822 5823 5825 5826 5827 5827 5828 5829 5829
5747 5746 5746 5745 5745 5745 5746 5746 5747 5747 5749 5749 5750 5751 5751 5752 5752 5753 5755 5756 5757 5760 5763 5767 5770 5774 5778 5782 5785 5788 5791 5794 5797 5800 5803 5806 5808 5810 5812 5814 5815 5817 5819 5820 5821 5821 5822 5823 5823
5744 5743 5742 5741 5740 5740 5741 5741 5741 5742 5742 5742 5743 5743 5743 5744 5744 5745 5747 5748 5750 5752 5755 5758 5762 5766 5770 5774 5777 5781 5784 5787 5790 5793 5796 5798 5801 5803 5805 5807 5808 5810 5812 5813 5814 5815 5815 5816 5816
5740 5739 5738 5737 5736 5736 5736 5736 5736 5736 5736 5736 5736 5736 5736 5736 5737 5738 5740 5741 5742 5744 5747 5750 5754 5758 5762 5766 5769 5773 5776 5779 5782 5785 5788 5790 5793 5796 5798 5800 5801 5803 5804 5805 5806 5807 5808 5809 5809
5736 5736 5735 5733 5732 5731 5732 5732 5730 5730 5730 5729 5729 5728 5728 5729 5730 5731 5732 5733 5734 5736 5739 5742 5746 5750 5754 5758 5761 5765 5769 5772 5775 5778 5780 5783 5785 5788 5790 5792 5794 5795 5796 5797 5798 5799 5800 5801 5801
5733 5732 5731 5730 5728 5727 5728 5728 5726 5724 5723 5723 5722 5721 5721 5722 5722 5724 5725 5726 5727 5729 5732 5734 5738 5742 5746 5751 5754 5758 5761 5765 5767 5770 5773 5775 5777 5779 5782 5784 5785 5786 5787 5789 5790 5791 5792 5793 5793
5729 5728 5727 5726 5724 5723 5722 5722 5721 5718 5717 5717 5716 5715 5715 5715 5715 5716 5718 5719 5720 5722 5724 5727 5730 5734 5739 5743 5747 5750 5754 5757 5759 5762 5765 5767 5769 5771 5773 5775 5776 5777 5779 5780 5781 5782 5783 5784 5784
5725 5724 5723 5722 5720 5719 5718 5717 5715 5713 5712 5711 5710 5709 5709 5709 5709 5710 5711 5712 5714 5715 5717 5720 5723 5727 5731 5735 5739 5743 5746 5749 5752 5754 5757 5759 5761 5762 5764 5765 5767 5768 5769 5770 5771 5772 5773 5774 5775
5722 5721 5720 5718 5716 5715 5713 5712 5710 5708 5707 5706 5705 5704 5704 5704 5704 5704 5705 5706 5707 5709 5711 5714 5717 5720 5723 5728 5731 5734 5737 5741 5744 5746 5749 5750 5752 5753 5755 5756 5757 5758 5760 5761 5761 5763 5763 5764 5765
5717 5716 5715 5714 5712 5710 5709 5707 5705 5704 5703 5701 5700 5699 5698 5698 5698 5699 5700 5701 5702 5704 5706 5708 5711 5713 5717 5720 5723 5726 5730 5733 5736 5738 5740 5742 5743 5744 5746 5747 5748 5749 5750 5751 5752 5753 5754 5754 5755
5714 5712 5711 5709 5708 5705 5704 5704 5702 5700 5698 5697 5696 5694 5694 5694 5694 5694 5695 5695 5697 5698 5700 5703 5705 5707 5710 5713 5716 5719 5723 5725 5728 5730 5732 5733 5734 5735 5736 5738 5739 5739 5740 5741 5742 5743 5744 5744 5745
5710 5708 5706 5704 5702 5701 5700 5698 5698 5696 5694 5693 5691 5690 5690 5689 5689 5689 5689 5690 5691 5692 5694 5696 5698 5700 5703 5706 5708 5711 5715 5718 5720 5722 5723 5724 5725 5726 5727 5728 5729 5730 5730 5731 5732 5733 5734 5734 5735
5704 5703 5701 5700 5698 5696 5695 5693 5694 5691 5690 5689 5687 5686 5685 5684 5684 5684 5684 5685 5686 5687 5688 5690 5692 5694 5696 5699 5701 5704 5707 5710 5712 5713 5714 5715 5716 5717 5717 5718 5718 5719 5720 5721 5722 5722 5723 5724 5724
5699 5698 5696 5695 5693 5692 5691 5688 5688 5687 5686 5684 5683 5681 5680 5680 5679 5679 5679 5680 5681 5681 5683 5684 5686 5687 5689 5692 5694 5697 5699 5701 5703 5704 5705 5706 5707 5707 5708 5708 5708 5708 5709 5710 5711 5712 5713 5713 5714
5694 5693 5691 5689 5687 5687 5685 5683 5684 5682 5680 5679 5678 5677 5676 5675 5674 5674 5674 5675 5675 5676 5677 5678 5679 5681 5683 5684 5686 5689 5691 5693 5694 5696 5697 5697 5698 5698 5699 5698 5698 5698 5699 5700 5701 5702 5703 5703 5703
5688 5687 5686 5683 5682 5682 5680 5678 5679 5677 5675 5673 5672 5671 5671 5670 5669 5668 5669 5669 5670 5670 5671 5672 5673 5674 5676 5677 5679 5681 5682 5684 5685 5687 5688 5688 5688 5689 5689 5689 5689 5689 5689 5690 5691 5691 5692 5692 5692
5682 5681 5680 5678 5675 5674 5674 5674 5674 5672 5670 5668 5667 5666 5665 5665 5664 5663 5663 5664 5664 5664 5665 5666 5667 5668 5669 5670 5672 5673 5674 5676 5677 5678 5679 5679 5679 5679 5679 5679 5679 5679 5679 5680 5680 5681 5681 5681 5681
5676 5675 5673 5671 5668 5667 5668 5668 5668 5666 5665 5663 5662 5661 5660 5659 5658 5658 5658 5658 5658 5658 5658 5659 5660 5661 5661 5663 5664 5665 5666 5667 5668 5669 5669 5670 5670 5669 5669 5669 5669 5669 5669 5669 5669 5670 5670 5670 5669
5670 5668 5666 5664 5662 5661 5660 5664 5662 5660 5658 5657 5655 5654 5653 5653 5652 5652 5652 5652 5651 5652 5652 5652 5652 5653 5654 5655 5656 5657 5657 5658 5659 5659 5659 5660 5660 5659 5659 5659 5659 5659 5659 5659 5658 5658 5658 5657 5657
5661 5661 5659 5658 5657 5655 5653 5657 5655 5653 5651 5650 5648 5647 5646 5646 5645 5645 5645 5645 5644 5644 5645 5645 5645 5645 5646 5647 5647 5648 5648 5649 5649 5649 5649 5649 5649 5649 5649 5649 5648 5648 5647 5647 5646 5646 5646 5645 5645